Regional Weather Roundup
Issued by NWS Goodland, KS

Home | Current Version | Previous Version | Text Only | Print | Product List | Glossary On
Versions: 1 2 3 4 5 6 7 8 9 10 11 12 13 14 15 16 17 18 19 20 21 22 23 24 25 26 27 28 29 30 31 32 33 34 35 36 37 38 39 40 41 42 43 44 45 46 47 48 49 50
000
ASUS43 KGLD 301959
RWRGLD

GOODLAND FORECAST AREA HOURLY WEATHER ROUNDUP
NATIONAL WEATHER SERVICE GOODLAND KS
200 PM MDT WED JUL 30 2014

...OFFICIAL OBSERVATIONS...

CITY           SKY/WX    TMP DP  RH WIND       PRES   REMARKS
GOODLAND KS    CLOUDY    68  56  65 NE10      30.27R
HILL CITY KS   CLOUDY    75  56  51 VRB7      30.18F
IMPERIAL NEB   PTSUNNY   75  56  51 VRB3      30.23F
MCCOOK NEB     PTSUNNY   78  56  46 SE8       30.20F
AKRON CO       CLOUDY    63  56  78 S7        30.32R
BURLINGTON CO  CLOUDY    66  54  65 E13       30.28S
LIMON CO       LGT RAIN  60  55  83 SE7       30.34S
$$

...UNOFFICIAL OBSERVATIONS...

CITY           SKY/WX    TMP DP  RH WIND       PRES   REMARKS
COLBY KS       PTSUNNY   72  61  68 E8        30.24F
GOVE KS          N/A     68  32  26 MISG        N/A
LENORA KS        N/A     76  32  20 MISG        N/A
NORTON KS      PTSUNNY   75  48  38 NE10      30.18S
KIT CARSON CO    N/A     65  57  76 N8G17       N/A
YUMA CO          N/A     66  57  72 SE6         N/A
$$



USA.gov is the U.S. government's official web portal to all federal, state and local government web resources and services.